Location: Beuvrequen
(50.8014°N, 1.6652°E)
Time: 03:48:58
(UTC+00:00)

ATLAS 3B R/B - Pass Details

Date: 16 October 2021
Orbit: 989 x 1206 km, 63.8° (Epoch: 25 November)

Event Time Altitude Azimuth Distance (km) Brightness Sun altitude
Rises 18:25:51 0° 223° (SW) 3,713 6.1 -14.5°
Reaches altitude 10° 18:28:23 10° 224° (SW) 2,782 5.5 -14.9°
Maximum altitude 18:34:57 85° 313° (NW) 1,050 2.7 -16.0°
Drops below altitude 10° 18:41:53 10° 43° (NE) 2,931 4.7 -17.0°
Enters shadow 18:42:52 - 44° (NE) 3,290 4.9 -17.2°
